{"data":{"norad_id":63139,"epoch":"2026-09-21T02:06:02.282688Z","epoch_age_seconds":111498,"freshness":"FRESH","line1":"1 63139U 25043H   26264.08752642  .00119696  00000+0  91912-3 0  9996","line2":"2 63139  42.9976 152.8728 0000446 189.9597 170.1262 15.70938956 90209","mean_motion":15.70938956,"eccentricity":4.46e-5,"inclination_deg":42.9976,"raan_deg":152.8728,"arg_perigee_deg":189.9597,"mean_anomaly_deg":170.1262,"bstar":0.00091912,"rev_number":9020,"period_min":91.664923993393,"perigee_km":355.91188967141,"apogee_km":356.51259362377,"semimajor_km":6734.3492416476,"source":"CELESTRAK","updated_at":"2026-09-22T09:00:49.791314Z"}}